AOJ74J EDDF-LOWW

Flight info

Callsign AOJ74J
Flight time 0h 52m
Altitude 35000
Route SULUS7S SULUS Z650 VEMUT DCT BUDEX BUDEX2W
Aircraft C750/M-SBDE3FGHRWXY/S

Departure

Time 2026-05-04 18:06
Airport Frankfurt Main Airport (EDDF)

Arrival

Time 2026-05-04 18:58
Airport Vienna International Airport (LOWW)
Time Latitude Longitude Altitude Speed Heading
2026-05-04 17:29 50.02261 8.53133 330 ft 0 kts 339°
2026-05-04 17:47 50.02262 8.53131 331 ft 1 kts 328°
2026-05-04 17:48 50.02254 8.53113 330 ft 4 kts 200°
2026-05-04 17:48 50.02206 8.53102 331 ft 8 kts 196°
2026-05-04 17:48 50.02162 8.53069 331 ft 6 kts 221°
2026-05-04 17:48 50.02150 8.53013 329 ft 5 kts 266°
2026-05-04 17:49 50.02148 8.52965 332 ft 5 kts 267°
2026-05-04 17:49 50.02146 8.52893 332 ft 8 kts 267°
2026-05-04 17:49 50.02161 8.52833 331 ft 5 kts 336°
2026-05-04 17:49 50.02196 8.52831 332 ft 7 kts 359°
2026-05-04 17:50 50.02260 8.52830 332 ft 10 kts 360°
2026-05-04 17:50 50.02323 8.52834 332 ft 9 kts 12°
2026-05-04 17:50 50.02359 8.52910 330 ft 10 kts 70°
2026-05-04 17:50 50.02383 8.53011 332 ft 10 kts 70°
2026-05-04 17:51 50.02410 8.53124 332 ft 12 kts 70°
2026-05-04 17:51 50.02440 8.53252 333 ft 12 kts 70°
2026-05-04 17:51 50.02468 8.53366 333 ft 12 kts 69°
2026-05-04 17:51 50.02501 8.53502 332 ft 15 kts 69°
2026-05-04 17:52 50.02538 8.53658 333 ft 15 kts 70°
2026-05-04 17:52 50.02575 8.53811 331 ft 15 kts 67°
2026-05-04 17:52 50.02610 8.53957 331 ft 14 kts 70°
2026-05-04 17:52 50.02644 8.54101 332 ft 14 kts 70°
2026-05-04 17:53 50.02673 8.54236 333 ft 13 kts 77°
2026-05-04 17:53 50.02701 8.54386 333 ft 14 kts 69°
2026-05-04 17:53 50.02735 8.54530 336 ft 15 kts 70°
2026-05-04 17:53 50.02773 8.54688 336 ft 15 kts 70°
2026-05-04 17:54 50.02794 8.54778 336 ft 1 kts 69°
2026-05-04 17:54 50.02794 8.54779 336 ft 0 kts 69°
2026-05-04 17:54 50.02795 8.54781 336 ft 1 kts 69°
2026-05-04 17:55 50.02811 8.54819 334 ft 6 kts 38°
2026-05-04 17:55 50.02870 8.54822 335 ft 10 kts 358°
2026-05-04 17:55 50.02915 8.54889 337 ft 11 kts 70°
2026-05-04 17:55 50.02951 8.55041 335 ft 16 kts 70°
2026-05-04 17:56 50.02988 8.55196 333 ft 15 kts 70°
2026-05-04 17:56 50.03021 8.55336 336 ft 13 kts 70°
2026-05-04 17:56 50.03051 8.55459 337 ft 12 kts 69°
2026-05-04 17:56 50.03086 8.55608 339 ft 16 kts 69°
2026-05-04 17:57 50.03123 8.55761 339 ft 14 kts 69°
2026-05-04 17:57 50.03157 8.55905 343 ft 15 kts 70°
2026-05-04 17:57 50.03192 8.56050 348 ft 15 kts 70°
2026-05-04 17:57 50.03227 8.56196 347 ft 15 kts 69°
2026-05-04 17:58 50.03265 8.56353 349 ft 17 kts 70°
2026-05-04 17:58 50.03309 8.56541 352 ft 19 kts 70°
2026-05-04 17:58 50.03351 8.56718 349 ft 17 kts 70°
2026-05-04 17:58 50.03388 8.56874 348 ft 14 kts 69°
2026-05-04 17:59 50.03423 8.57014 353 ft 14 kts 69°
2026-05-04 17:59 50.03455 8.57150 353 ft 13 kts 69°
2026-05-04 17:59 50.03525 8.57444 355 ft 19 kts 70°
2026-05-04 18:00 50.03567 8.57621 357 ft 16 kts 70°
2026-05-04 18:00 50.03603 8.57773 356 ft 14 kts 70°
2026-05-04 18:00 50.03634 8.57902 357 ft 12 kts 70°
2026-05-04 18:00 50.03664 8.58021 360 ft 12 kts 55°
2026-05-04 18:01 50.03703 8.58047 360 ft 5 kts 355°
2026-05-04 18:01 50.03761 8.58017 361 ft 10 kts 339°
2026-05-04 18:01 50.03818 8.57985 362 ft 9 kts 339°
2026-05-04 18:02 50.03917 8.57927 363 ft 6 kts 339°
2026-05-04 18:02 50.03960 8.57902 365 ft 7 kts 340°
2026-05-04 18:02 50.04008 8.57875 363 ft 8 kts 340°
2026-05-04 18:02 50.04067 8.57841 364 ft 10 kts 340°
2026-05-04 18:03 50.04157 8.57789 361 ft 14 kts 340°
2026-05-04 18:03 50.04242 8.57740 360 ft 12 kts 338°
2026-05-04 18:03 50.04266 8.57665 358 ft 2 kts 252°
2026-05-04 18:03 50.04266 8.57664 358 ft 0 kts 250°
2026-05-04 18:05 50.04230 8.57512 361 ft 56 kts 248°
2026-05-04 18:05 50.03964 8.56397 354 ft 150 kts 250°
2026-05-04 18:05 50.03577 8.54765 701 ft 170 kts 251°
2026-05-04 18:06 50.02774 8.51490 2516 ft 153 kts 247°
2026-05-04 18:06 50.01963 8.50279 2910 ft 180 kts 207°
2026-05-04 18:06 50.00699 8.49583 3302 ft 205 kts 198°
2026-05-04 18:07 49.99241 8.49125 3800 ft 222 kts 176°
2026-05-04 18:07 49.97865 8.49983 4766 ft 217 kts 144°
2026-05-04 18:07 49.96930 8.51875 5556 ft 221 kts 122°
2026-05-04 18:07 49.96188 8.53946 6303 ft 227 kts 122°
2026-05-04 18:08 49.95366 8.56221 6642 ft 251 kts 122°
2026-05-04 18:08 49.94484 8.58681 7041 ft 273 kts 121°
2026-05-04 18:08 49.94013 8.61571 7687 ft 283 kts 97°
2026-05-04 18:08 49.93922 8.64631 8494 ft 285 kts 96°
2026-05-04 18:09 49.92750 8.70392 9759 ft 283 kts 133°
2026-05-04 18:09 49.89674 8.74049 10905 ft 275 kts 149°
2026-05-04 18:10 49.88214 8.76081 10967 ft 291 kts 131°
2026-05-04 18:10 49.87161 8.78940 10961 ft 327 kts 111°
2026-05-04 18:10 49.86998 8.82627 11003 ft 361 kts 86°
2026-05-04 18:10 49.87399 8.86549 11031 ft 372 kts 81°
2026-05-04 18:11 49.87944 8.90499 11025 ft 376 kts 80°
2026-05-04 18:11 49.88439 8.94491 11202 ft 378 kts 82°
2026-05-04 18:11 49.88842 8.98395 12624 ft 352 kts 83°
2026-05-04 18:11 49.89249 9.02042 13961 ft 341 kts 82°
2026-05-04 18:12 49.89683 9.05701 14552 ft 349 kts 82°
2026-05-04 18:12 49.90116 9.09418 15280 ft 351 kts 82°
2026-05-04 18:12 49.90536 9.13168 16006 ft 354 kts 82°
2026-05-04 18:12 49.90961 9.16950 16734 ft 358 kts 82°
2026-05-04 18:13 49.91396 9.20778 17488 ft 362 kts 82°
2026-05-04 18:13 49.91835 9.24654 18242 ft 366 kts 82°
2026-05-04 18:13 49.91848 9.32583 19590 ft 370 kts 98°
2026-05-04 18:14 49.91590 9.36576 20286 ft 374 kts 97°
2026-05-04 18:14 49.91474 9.40636 21000 ft 379 kts 93°
2026-05-04 18:14 49.91471 9.44753 21694 ft 384 kts 92°
2026-05-04 18:15 49.91274 9.53089 23114 ft 390 kts 95°
2026-05-04 18:15 49.91091 9.61441 24723 ft 386 kts 94°
2026-05-04 18:15 49.91004 9.65647 25119 ft 396 kts 95°
2026-05-04 18:16 49.90888 9.70012 25343 ft 410 kts 95°
2026-05-04 18:16 49.90777 9.74433 25996 ft 411 kts 95°
2026-05-04 18:16 49.90676 9.78889 26535 ft 416 kts 95°
2026-05-04 18:17 49.90453 9.87948 27650 ft 424 kts 95°
2026-05-04 18:17 49.90334 9.92541 28211 ft 428 kts 95°
2026-05-04 18:17 49.90095 10.01864 29319 ft 437 kts 95°
2026-05-04 18:18 49.89968 10.06606 29767 ft 443 kts 95°
2026-05-04 18:18 49.89837 10.11407 30246 ft 448 kts 95°
2026-05-04 18:18 49.89706 10.16243 30761 ft 450 kts 95°
2026-05-04 18:18 49.89570 10.21136 30955 ft 461 kts 95°
2026-05-04 18:19 49.89275 10.31384 30978 ft 489 kts 95°
2026-05-04 18:19 49.89128 10.36594 31997 ft 472 kts 95°
2026-05-04 18:19 49.88988 10.41579 33078 ft 460 kts 95°
2026-05-04 18:20 49.88831 10.46568 33423 ft 466 kts 95°
2026-05-04 18:20 49.88670 10.51602 33922 ft 468 kts 95°
2026-05-04 18:20 49.88519 10.56642 34368 ft 469 kts 95°
2026-05-04 18:20 49.88366 10.61702 34823 ft 470 kts 95°
2026-05-04 18:21 49.88204 10.66739 34955 ft 480 kts 95°
2026-05-04 18:21 49.88031 10.71965 34956 ft 491 kts 95°
2026-05-04 18:21 49.87856 10.77311 34959 ft 502 kts 95°
2026-05-04 18:21 49.87679 10.82778 34963 ft 513 kts 95°
2026-05-04 18:22 49.87297 10.94020 34967 ft 531 kts 95°
2026-05-04 18:22 49.86903 11.05498 34960 ft 535 kts 95°
2026-05-04 18:23 49.86485 11.17025 34962 ft 536 kts 95°
2026-05-04 18:23 49.86064 11.28575 34957 ft 537 kts 95°
2026-05-04 18:24 49.85625 11.40119 34947 ft 537 kts 96°
2026-05-04 18:24 49.85178 11.51701 34965 ft 539 kts 95°
2026-05-04 18:25 49.84717 11.63221 34973 ft 539 kts 96°
2026-05-04 18:25 49.84245 11.74812 34980 ft 539 kts 96°
2026-05-04 18:26 49.83759 11.86415 34975 ft 542 kts 96°
2026-05-04 18:26 49.83259 11.98118 34982 ft 547 kts 96°
2026-05-04 18:27 49.82742 12.09873 34979 ft 548 kts 96°
2026-05-04 18:27 49.82215 12.21645 34956 ft 548 kts 96°
2026-05-04 18:28 49.81674 12.33413 34947 ft 548 kts 96°
2026-05-04 18:28 49.80517 12.45025 34946 ft 544 kts 108°
2026-05-04 18:29 49.77424 12.55590 34942 ft 537 kts 125°
2026-05-04 18:29 49.72975 12.64814 34959 ft 534 kts 132°
2026-05-04 18:30 49.66462 12.78804 34949 ft 538 kts 124°
2026-05-04 18:31 49.62236 12.88297 34940 ft 536 kts 129°
2026-05-04 18:31 49.57923 12.97678 34939 ft 537 kts 126°
2026-05-04 18:32 49.53700 13.07159 34937 ft 536 kts 128°
2026-05-04 18:32 49.49376 13.16508 34933 ft 537 kts 127°
2026-05-04 18:33 49.45125 13.25940 34932 ft 536 kts 128°
2026-05-04 18:33 49.40837 13.35202 34935 ft 534 kts 128°
2026-05-04 18:34 49.36574 13.44538 34937 ft 534 kts 128°
2026-05-04 18:34 49.32257 13.53843 34940 ft 536 kts 128°
2026-05-04 18:35 49.27957 13.63161 34937 ft 535 kts 128°
2026-05-04 18:35 49.23633 13.72442 34938 ft 535 kts 128°
2026-05-04 18:36 49.19313 13.81719 34938 ft 535 kts 128°
2026-05-04 18:36 49.14970 13.90988 34938 ft 538 kts 128°
2026-05-04 18:37 49.10623 14.00256 34928 ft 534 kts 128°
2026-05-04 18:37 49.06371 14.09282 34491 ft 502 kts 128°
2026-05-04 18:37 49.04372 14.13515 33834 ft 482 kts 128°
2026-05-04 18:38 49.02444 14.17585 33192 ft 467 kts 128°
2026-05-04 18:38 49.00552 14.21574 32570 ft 465 kts 128°
2026-05-04 18:38 48.98772 14.25744 31971 ft 473 kts 123°
2026-05-04 18:38 48.97152 14.30122 31413 ft 476 kts 120°
2026-05-04 18:39 48.95524 14.34595 30947 ft 489 kts 122°
2026-05-04 18:39 48.91955 14.43463 30937 ft 496 kts 123°
2026-05-04 18:40 48.88504 14.52457 30377 ft 481 kts 122°
2026-05-04 18:40 48.86803 14.56782 29712 ft 474 kts 123°
2026-05-04 18:40 48.85098 14.61034 29085 ft 470 kts 123°
2026-05-04 18:40 48.83425 14.65282 28492 ft 466 kts 122°
2026-05-04 18:41 48.81784 14.69502 27931 ft 462 kts 122°
2026-05-04 18:41 48.80142 14.73673 27374 ft 459 kts 122°
2026-05-04 18:41 48.78501 14.77790 26831 ft 454 kts 122°
2026-05-04 18:41 48.76880 14.81875 26311 ft 451 kts 122°
2026-05-04 18:42 48.75277 14.85937 25801 ft 447 kts 122°
2026-05-04 18:42 48.73678 14.89973 25242 ft 445 kts 122°
2026-05-04 18:42 48.72088 14.93959 24657 ft 441 kts 122°
2026-05-04 18:42 48.70509 14.97916 24039 ft 437 kts 122°
2026-05-04 18:43 48.68948 15.01836 23402 ft 433 kts 122°
2026-05-04 18:43 48.67422 15.05660 22682 ft 427 kts 122°
2026-05-04 18:43 48.65892 15.09480 21967 ft 422 kts 122°
2026-05-04 18:43 48.64384 15.13244 21424 ft 417 kts 122°
2026-05-04 18:44 48.62887 15.16978 20880 ft 413 kts 122°
2026-05-04 18:44 48.62384 15.18230 20695 ft 412 kts 122°
2026-05-04 18:44 48.59928 15.24336 19799 ft 406 kts 123°
2026-05-04 18:44 48.58467 15.27961 19251 ft 402 kts 123°
2026-05-04 18:45 48.57022 15.31546 18737 ft 398 kts 123°
2026-05-04 18:45 48.55586 15.35098 18204 ft 395 kts 123°
2026-05-04 18:45 48.54162 15.38620 17653 ft 391 kts 123°
2026-05-04 18:45 48.52770 15.42121 17129 ft 388 kts 121°
2026-05-04 18:46 48.51923 15.45984 16697 ft 397 kts 99°
2026-05-04 18:46 48.51654 15.50156 16833 ft 402 kts 96°
2026-05-04 18:46 48.51427 15.54378 16927 ft 406 kts 96°
2026-05-04 18:46 48.51271 15.57184 16920 ft 406 kts 96°
2026-05-04 18:47 48.50930 15.61410 16928 ft 405 kts 99°
2026-05-04 18:47 48.50532 15.65622 16921 ft 406 kts 99°
2026-05-04 18:47 48.50194 15.69847 16921 ft 406 kts 97°
2026-05-04 18:47 48.49893 15.74082 16915 ft 406 kts 97°
2026-05-04 18:48 48.49567 15.78213 16617 ft 396 kts 98°
2026-05-04 18:48 48.49216 15.82280 16050 ft 388 kts 99°
2026-05-04 18:48 48.48885 15.86298 15488 ft 384 kts 98°
2026-05-04 18:48 48.48574 15.90283 14941 ft 381 kts 98°
2026-05-04 18:49 48.48256 15.94232 14411 ft 378 kts 99°
2026-05-04 18:49 48.47929 15.98141 13887 ft 375 kts 99°
2026-05-04 18:49 48.47607 16.02026 13300 ft 372 kts 99°
2026-05-04 18:49 48.47296 16.05818 12695 ft 368 kts 98°
2026-05-04 18:50 48.46980 16.09633 12068 ft 365 kts 98°
2026-05-04 18:50 48.46661 16.13444 11433 ft 354 kts 98°
2026-05-04 18:50 48.46362 16.16993 10812 ft 338 kts 99°
2026-05-04 18:50 48.46083 16.20345 10099 ft 302 kts 98°
2026-05-04 18:51 48.45793 16.23558 9260 ft 312 kts 102°
2026-05-04 18:51 48.44988 16.26555 8435 ft 306 kts 121°
2026-05-04 18:51 48.43900 16.29217 7939 ft 292 kts 125°
2026-05-04 18:51 48.42813 16.31752 7453 ft 284 kts 124°
2026-05-04 18:52 48.41536 16.33962 6925 ft 278 kts 139°
2026-05-04 18:52 48.40029 16.35763 6378 ft 276 kts 144°
2026-05-04 18:52 48.38490 16.37456 5819 ft 272 kts 145°
2026-05-04 18:52 48.36983 16.39116 5385 ft 266 kts 146°
2026-05-04 18:53 48.35508 16.40768 4994 ft 262 kts 145°
2026-05-04 18:53 48.34073 16.42406 4983 ft 262 kts 145°
2026-05-04 18:53 48.32629 16.44064 5002 ft 264 kts 145°
2026-05-04 18:53 48.31160 16.45755 4669 ft 268 kts 145°
2026-05-04 18:54 48.29703 16.47447 4154 ft 257 kts 146°
2026-05-04 18:54 48.28349 16.49059 3637 ft 243 kts 145°
2026-05-04 18:54 48.27046 16.50626 3161 ft 237 kts 145°
2026-05-04 18:54 48.25760 16.52040 2842 ft 213 kts 157°
2026-05-04 18:55 48.24407 16.52563 2890 ft 201 kts 169°
2026-05-04 18:55 48.21734 16.53665 2548 ft 190 kts 166°
2026-05-04 18:55 48.20558 16.54167 2297 ft 159 kts 166°
2026-05-04 18:56 48.19521 16.54610 2100 ft 155 kts 165°
2026-05-04 18:56 48.18490 16.55050 1905 ft 154 kts 166°
2026-05-04 18:56 48.17455 16.55490 1710 ft 155 kts 166°
2026-05-04 18:56 48.16453 16.55916 1509 ft 136 kts 164°
2026-05-04 18:57 48.15631 16.56266 1335 ft 113 kts 165°
2026-05-04 18:57 48.14840 16.56597 1204 ft 121 kts 164°
2026-05-04 18:57 48.14017 16.56957 1048 ft 125 kts 164°
2026-05-04 18:57 48.13190 16.57310 871 ft 121 kts 162°
2026-05-04 18:58 48.12406 16.57637 732 ft 118 kts 161°
2026-05-04 18:58 48.11622 16.57970 614 ft 111 kts 162°
2026-05-04 18:58 48.10986 16.58238 609 ft 65 kts 166°
2026-05-04 18:58 48.10717 16.58276 605 ft 25 kts 184°
2026-05-04 18:59 48.10593 16.58241 605 ft 7 kts 194°
2026-05-04 18:59 48.10570 16.58230 605 ft 2 kts 202°
2026-05-04 18:59 48.10553 16.58203 608 ft 8 kts 245°
2026-05-04 18:59 48.10571 16.58137 612 ft 7 kts 331°
2026-05-04 19:00 48.10632 16.58108 611 ft 11 kts 344°
2026-05-04 19:00 48.10721 16.58071 605 ft 16 kts 345°
2026-05-04 19:00 48.10852 16.58017 607 ft 20 kts 343°
2026-05-04 19:00 48.10947 16.57949 606 ft 13 kts 314°
2026-05-04 19:01 48.11006 16.57858 606 ft 12 kts 314°
2026-05-04 19:01 48.11051 16.57761 608 ft 11 kts 296°
2026-05-04 19:01 48.11095 16.57626 608 ft 16 kts 296°
2026-05-04 19:01 48.11144 16.57473 611 ft 19 kts 296°
2026-05-04 19:02 48.11210 16.57272 608 ft 22 kts 296°
2026-05-04 19:02 48.11276 16.57067 611 ft 21 kts 296°
2026-05-04 19:02 48.11340 16.56872 609 ft 20 kts 296°
2026-05-04 19:02 48.11401 16.56684 614 ft 20 kts 296°
2026-05-04 19:03 48.11460 16.56505 613 ft 19 kts 296°
2026-05-04 19:03 48.11515 16.56334 606 ft 18 kts 296°
2026-05-04 19:03 48.11574 16.56155 614 ft 24 kts 296°
2026-05-04 19:03 48.11628 16.55991 608 ft 16 kts 296°
2026-05-04 19:04 48.11689 16.55802 613 ft 21 kts 296°
2026-05-04 19:04 48.11752 16.55610 617 ft 20 kts 296°
2026-05-04 19:04 48.11815 16.55416 610 ft 20 kts 296°
2026-05-04 19:04 48.11880 16.55217 612 ft 24 kts 296°
2026-05-04 19:05 48.11949 16.55003 613 ft 22 kts 296°
2026-05-04 19:05 48.12014 16.54804 609 ft 21 kts 296°
2026-05-04 19:05 48.12076 16.54613 606 ft 20 kts 296°
2026-05-04 19:05 48.12137 16.54426 605 ft 22 kts 296°
2026-05-04 19:06 48.12203 16.54224 610 ft 22 kts 296°
2026-05-04 19:06 48.12267 16.54027 612 ft 21 kts 296°
2026-05-04 19:06 48.12328 16.53838 608 ft 20 kts 296°
2026-05-04 19:06 48.12383 16.53670 610 ft 13 kts 295°
2026-05-04 19:07 48.12444 16.53635 606 ft 9 kts 21°
2026-05-04 19:07 48.12502 16.53626 614 ft 9 kts
2026-05-04 19:07 48.12558 16.53664 610 ft 8 kts 26°
2026-05-04 19:07 48.12600 16.53694 612 ft 7 kts 25°
2026-05-04 19:08 48.12636 16.53673 612 ft 6 kts 297°
2026-05-04 19:08 48.12661 16.53650 610 ft 3 kts 16°
2026-05-04 19:08 48.12696 16.53667 606 ft 4 kts 347°
2026-05-04 19:08 48.12713 16.53627 606 ft 4 kts 296°
2026-05-04 19:09 48.12716 16.53616 612 ft 0 kts 296°